Location: ??????
(33.3472°N, 35.4764°E)
Time: 04:59:09
(UTC+00:00)

ATLAS 2AS CENTAUR R/B - Pass Details

Date: 21 August 2019
Orbit: 927 x 1285 km, 63.7° (Epoch: 14 September)

Event Time Altitude Azimuth Distance (km) Brightness Sun altitude
Rises 01:42:38 0° 313° (NW) 4,087 5.6 -16.7°
Reaches altitude 10° 01:46:17 10° 298° (WNW) 3,057 4.8 -16.1°
Enters shadow 01:50:39 20° 261° (W) 2,335 3.9 -15.2°
